Flag for U.S.A. Weather past 2 weeks in Flint, Michigan, U.S.A.

Now
26 °F

Clear.


Feels Like: 14 °F
Forecast: 24 / 35 °F
Wind: 14 mph from South

Location: Bishop International Airport

Current Time: Jan 28, 2015 at 11:53:24 PM

Latest Report: Jan 28, 2015 at 10:53 PM


Visibility: 10 mi

Pressure: 30.13 "Hg

Humidity: 52%

Dew point: 11 °F

Location of FlintLocation

Historic Weather in Flint — Graph

°F

Flint temperature yesterday

Maximum temperature yesterday: 27 °F (at 1:53 PM)
Minimum temperature yesterday: 8 °F (at 4:53 AM)
Average temperature yesterday: 17 °F

Past Weeks' High & Low Weather Summary

 TemperatureHumidityPressure
High44 °F (Jan 17, 3:53 PM)89% (Jan 18, 7:53 AM)30.56 "Hg (Jan 18, 7:53 AM)
Low-13 °F (Jan 14, 6:53 AM)33% (Jan 28, 2:53 PM)29.56 "Hg (Jan 24, 1:53 PM)
Average25 °F71%30.04 "Hg
* Reported Jan 13 10:53 PM — Jan 28 10:53 PM, Flint, Weather by CustomWeather, © 2014

Note: Actual official high and low records may vary slightly from our data, if they occured in-between our weather recording intervals... More about our weather records

Advertising

Flint weather history for previous 24 hours

 ConditionsComfort  
Time TempWeatherWind HumidityBarometerVisibility
10:53 PM
Jan 28
26 °FClear.14 mph52%30.13 "Hg10 mi
9:53 PM26 °FClear.13 mph52%30.16 "Hg10 mi
8:53 PM27 °FClear.13 mph58%30.19 "Hg10 mi
7:53 PM28 °FClear.12 mph58%30.22 "Hg10 mi
6:53 PM29 °FOvercast.7 mph47%30.24 "Hg10 mi
5:53 PM30 °FPassing clouds.9 mph36%30.26 "Hg10 mi
4:53 PM31 °FSunny.10 mph45%30.25 "Hg10 mi
3:53 PM32 °FSunny.7 mph36%30.27 "Hg10 mi
2:53 PM32 °FSunny.7 mph33%30.29 "Hg10 mi
1:53 PM31 °FSunny.10 mph40%30.30 "Hg10 mi
12:53 PM29 °FSunny.5 mph43%30.33 "Hg10 mi
11:53 AM27 °FSunny.5 mph51%30.36 "Hg10 mi
10:53 AM23 °FSunny.6 mph65%30.38 "Hg10 mi
9:53 AM17 °FSunny.5 mph80%30.37 "Hg10 mi
8:53 AM11 °FSunny.No wind81%30.39 "Hg8 mi
7:53 AM6 °FClear.3 mph79%30.38 "Hg9 mi
6:53 AM6 °FClear.5 mph79%30.37 "Hg10 mi
5:53 AM6 °FClear.No wind79%30.36 "Hg10 mi
4:53 AM7 °FClear.5 mph76%30.34 "Hg10 mi
3:53 AM7 °FClear.3 mph79%30.31 "Hg10 mi
2:53 AM7 °FClear.No wind79%30.28 "Hg10 mi
1:53 AM8 °FClear.No wind83%30.28 "Hg10 mi
12:53 AM10 °FClear.5 mph80%30.29 "Hg10 mi
11:53 PM
Jan 27
12 °FClear.5 mph80%30.28 "Hg10 mi
Weather by CustomWeather, © 2014

See weather overviewHow to use our weather pages